DELTA 1 DEB, 7076

Orbit data source: Space-Track

DELTA 1 DEB, 7076 is space debris in SSO originally from a launch on Tue, 06 Nov 1973 UTC launched from the Air Force Western Test Range (AFWTR). Debris objects in space refer to the collection of defunct objects orbiting the Earth. Examples of debris include non-operational satellites, rocket bodies, and fragments generated from explosions, collisions, or faulty payload assembly.

Loading next visibility...
Identifier
7076, 1973-086BU
Orbit
SSO
Country
Flag of USUS
Related business
Manufacturer
Unknown
Mission
Spacecraft
Bus & Motor
Unknown
Mass
Unknown
Launch date (UTC)
1973-11-06 (52 years ago)
Launch vehicle
Unknown
Launch site
Air Force Western Test Range (AFWTR)
Object type
Payload
Rocket body
Debris
Shape & HBR
Unknown shape, 0.2 m
Radar Cross Section
Medium (>0.1 m² and <1 m²)

Expand to show TLE details & history
Last TLE update: 21 hours ago

TLE from 21 hours ago
0 DELTA 1 DEB
1  7076U 73086BU  26122.22634235 -.00000025  00000-0  15837-3 0  9999
2  7076 102.2989 122.8835 0012866 150.9499 229.1709 12.39866004374623
Epoch: 2026-05-02T05:25Z
TLE epoch observation values (Epoch: 2026-05-02T05:25:55.979Z)
Latitude
19.53428°
Longitude
176.8384°
Altitude
1,515.928 km
Speed
7.106 km/s
True Right ascension
07h 53m 52s
True Declination
19° 26' 12"
Sunlit
Object was in daylight at epoch
Visualization orbit readout
Latitude
Unknown
Longitude
Unknown
Altitude
Unknown
Speed
Unknown
Apparent Right ascension
Unknown
Apparent Declination
Unknown
Sunlit
N/A
Visualization observer readout
Local Sidereal Time
10:20:58
Azimuth
Unknown
Elevation
Unknown
Doppler factor
Unknown
Orbital elements
Apogee altitude
1,514.906 km
Perigee altitude
1,494.622 km
Semi-major axis
7,882.901 km
Eccentricity
0.00129
Inclination
102.2989°
RAAN
122.8835°
Arg. of periapsis
150.9499°
True anomaly
229.05946°
Mean anomaly
229.1709°
Eccentric anomaly
229.11517°
Mean motion
3.10109 °/min
Orbital period
116.09 mins
BSTAR
0.00015837
Loading maneuver chart data...
Computing Atmospheric mass density...
Loading historical data...
Loading historical data...
Loading historical data...
Loading historical data...
Loading historical data...
Loading historical data...
Loading historical data...

Documentation

Showing up to 5 results
|